Regional Weather Roundup
Issued by NWS Wilmington, NC

Home | Current Version | Previous Version | Text Only | Print | Product List | Glossary On
Versions: 1 2 3 4 5 6 7 8 9 10 11 12 13 14 15 16 17 18 19 20 21 22 23 24 25 26 27 28 29 30 31 32 33 34 35 36 37 38 39 40 41 42 43 44 45 46 47 48 49 50
000
ASUS42 KILM 220610
RWRILM
RWRILM
REGIONAL HOURLY WEATHER ROUNDUP
NATIONAL WEATHER SERVICE WILMINGTON NC
100 AM EST MON DEC 22 2014

NOTE: "FAIR" INDICATES FEW OR NO CLOUDS BELOW 12,000 FEET WITH NO
SIGNIFICANT WEATHER AND/OR OBSTRUCTIONS TO VISIBILITY.

...............WFO WILMINGTON COUNTY WARNING AREA...............

......COASTAL NC AND SC COUNTIES......

CITY           SKY/WX    TMP DP  RH WIND       PRES   REMARKS
WILMINGTON     RAIN      44  43  96 NE8       30.12F FOG
SOUTHPORT      LGT RAIN  46  45  94 NE10G17   30.11F
N MYRTLE BEACH RAIN      45  43  93 NE12      30.09F FOG
MYRTLE BEACH   CLOUDY    45  43  93 N12       30.10F

......INLAND NC AND SC COUNTIES.......

CITY           SKY/WX    TMP DP  RH WIND       PRES   REMARKS
LUMBERTON      RAIN      44  40  85 N7        30.14F FOG
ELIZABETHTOWN  RAIN      42  42  99 CALM      30.14F
WHITEVILLE     LGT RAIN  43  42  95 NE7       30.10F
FLORENCE       LGT RAIN  44  40  85 N7        30.14S FOG
DARLINGTON     CLOUDY    43  39  87 N8        30.16R

....................REST OF NORTH CAROLINA......................

.........EASTERN NC.........

CITY           SKY/WX    TMP DP  RH WIND       PRES   REMARKS
CAPE HATTERAS  LGT RAIN  48  48 100 NE10      30.16F FOG
JACKSONVILLE   CLOUDY    43  37  81 NE13      30.15F
MOREHEAD CITY  RAIN      46  45  96 NE12G20   30.15F FOG
KENANSVILLE    DRIZZLE   41  40  98 NE3       30.16F
NEW BERN       CLOUDY    45  41  86 NE8       30.18F FOG
ELIZABETH CITY CLOUDY    47  38  71 NE13      30.23F

.........CENTRAL NC.........

CITY           SKY/WX    TMP DP  RH WIND       PRES   REMARKS
RALEIGH DURHAM LGT RAIN  40  32  73 NE8       30.22F WCI  34
ROCKY MOUNT    CLOUDY    40  34  79 NE10      30.21F WCI  33
ROANOKE RAPIDS NOT AVBL
FAYETTEVILLE   LGT RAIN  42  40  92 N10       30.15F FOG
HOFFMAN        RAIN      41  40  97 N6        30.18S FOG

.........WESTERN NC.........

CITY           SKY/WX    TMP DP  RH WIND       PRES   REMARKS
CHARLOTTE      LGT RAIN  43  38  82 NE7       30.17F
GREENSBORO     CLOUDY    40  33  76 NE8       30.19F WCI  34
HICKORY        NOT AVBL
BOONE          NOT AVBL
ASHEVILLE      NOT AVBL

.....................REST OF SOUTH CAROLINA.....................

.........EASTERN SC.........

CITY           SKY/WX    TMP DP  RH WIND       PRES   REMARKS
CHARLESTON     LGT RAIN  47  46  97 NE8       30.08F FOG
BEAUFORT MCAS  LGT RAIN  48  46  93 N8        30.07F FOG
HILTON HEAD    CLOUDY    48  48 100 N6        30.09F FOG

.........CENTRAL SC.........

CITY           SKY/WX    TMP DP  RH WIND       PRES   REMARKS
COLUMBIA       LGT RAIN  47  44  90 VRB3      30.11F FOG
ORANGEBURG     LGT RAIN  46  43  89 NE7       30.10F FOG
SUMTER SHAW    LGT RAIN  44  43  94 NE13      30.10F

.........WESTERN SC.........

CITY           SKY/WX    TMP DP  RH WIND       PRES   REMARKS
GREENVILLE     NOT AVBL
ROCK HILL      LGT RAIN  43  41  93 NE7       30.14F FOG
ANDERSON       LGT RAIN  45  41  86 NE9       30.13F
CLEMSON        NOT AVBL
GREENWOOD      LGT RAIN  44  42  93 NE7       30.14F FOG


...................COASTAL AND OFFSHORE REPORTS..................

................LOCAL PIERS AND NC RESERVE................


STATION/POSITION TIME  SKY/WX   TEMP    WIND        PRES    VSBY
                                AIR SEA DIR/SP/G
                 (UTC)          (F)     (DEG/KT/KT) (MB)    (MI)
JOHNY MRCER PIER 0600            46 54   20/ 16/ 19 1019.1F
NC RESRV MASNBRO 0500            46      30/ 10     1020.0F
OCEAN CREST PIER NOT AVBL
SPRINGMAID  PIER 0600            45 52   50/ 15/ 18 1018.4F


................COASTAL AND OFFSHORE BUOYS................


STATION/POSITION TIME  SKY/WX   TEMP    WIND        PRES    VSBY
                                AIR SEA DIR/SP/G
                 (UTC)          (F)     (DEG/KT/KT) (MB)    (MI)
DIMNDSHOAL 41025 0600            63                 1020.4F
WVE H/P(F/S)=  4/ 5

CAPE LOOKOUT     0500            47      20/ 16/ 20 1021.0F
ONSLOW BAY 41036 0600            53 60   40/ 23/ 27 1019.3F
WVE H/P(F/S)=  7/ 6 WND WVE H/P(F/S)=  7/ 6

5 WRITEBCH 41038 NOT AVBL
MASONBORO  41110 0600               54                N/A
WVE H/P(F/S)=  5/ 6 WND WVE H/P(F/S)=  5/ 6

WILM HARBR 41108 0600               54                N/A
WVE H/P(F/S)=  4/ 4 WND WVE H/P(F/S)=  3/ 4

27WRITEBCH 41037 NOT AVBL
FRYING PAN 41013 0600            60 69   50/ 21/ 25 1018.3F
WVE H/P(F/S)=  8/ 8 WND WVE H/P(F/S)=  8/ 8

SUNST NRSH 41024 0500            45      40/ 12/ 14   N/A
CAPRS NRSH 41029 0500            52      60/ 23/ 27   N/A
EDISTO     41004 0600            70 72   80/ 17/ 21 1015.8F
WVE H/P(F/S)=  7/ 7 WND WVE H/P(F/S)=  7/ 7 SWL H/P/D(F/S/D)=  3/ 8



..........OFFSHORE BUOYS BEYOND 100 NM OFFSHORE...........
.....IN A TRIANGLE---HAT TO BERMUDA TO BAHAMAS TO HAT.....


STATION/POSITION TIME  SKY/WX   TEMP    WIND        PRES    VSBY
                                AIR SEA DIR/SP/G
                 (UTC)          (F)     (DEG/KT/KT) (MB)    (MI)
150E HAT   41001 NOT AVBL
W BERMUDA  41048 0543            67 73   70/ 17/ 23 1020.2F
WVE H/P(F/S)=  4/ 4 WND WVE H/P(F/S)=  3/ 4 SWL H/P/D(F/S/D)=  2/ 90/ 9

ATLANTIC S 41049 0454            73 77  100/  2/  4 1021.4F
WVE H/P(F/S)=  4/ 8 WND WVE H/P(F/S)=  2/ 4 SWL H/P/D(F/S/D)=  5/ 30/ 8

E BAHAMAS  41046 0521            77 80  100/ 12/ 16 1019.7F
WVE H/P(F/S)=  4/ 8 WND WVE H/P(F/S)=  2/ 5 SWL H/P/D(F/S/D)=  3/ 50/ 8

NE BAHAMAS 41047 0538            76 78  160/ 14/ 16 1019.8F
WVE H/P(F/S)=  4/ 7 WND WVE H/P(F/S)=  2/ 6 SWL H/P/D(F/S/D)=  3/ 50/ 7

120E CANVRL41010 0600            75 77  180/ 12/ 16 1017.5F
WVE H/P(F/S)=  3/ 8 WND WVE H/P(F/S)=  2/ 3 SWL H/P/D(F/S/D)=  3/ 40/ 8


END


USA.gov is the U.S. government's official web portal to all federal, state and local government web resources and services.